Trinity Center, CA

5:51 PM PDT on July 24, 2017 (GMT -0700)
Trinity Center

Weather History for KO86 - March, 2014

Change the Weather History Date:

Monday, March 10, 2014

  Actual Average (KMHS) Record (KMHS)
Temperature  
Mean Temperature 46 °F -  
Max Temperature 57 °F 50 °F 71 °F (2005)
Min Temperature 35 °F 30 °F 15 °F (1951)
Degree Days  
Heating Degree Days 19    
Moisture  
Dew Point 36 °F    
Average Humidity 72    
Maximum Humidity 100    
Minimum Humidity 33    
Precipitation  
Precipitation 0.14 in - - ()
Sea Level Pressure  
Sea Level Pressure 30.20 in    
Wind  
Wind Speed 3 mph (NW)    
Max Wind Speed 14 mph    
Max Gust Speed 26 mph    
Visibility 10 miles    
Events      
Averages and records for this station are not official NWS values.
T = Trace of Precipitation, MM = Missing Value Source: NWS Daily Summary

Daily Weather History Graph

Daily Weather History Graph

Search for Another Location

Airport or City:

Trip Planner

Search our weather history database for the weather conditions in past years. The results will help you decide how hot, cold, wet, or windy it might be!

Date:

Astronomy

Mar. 10, 2014 Rise Set
Actual Time 7:30 AM PDT 7:12 PM PDT
Civil Twilight 7:03 AM PDT 7:39 PM PDT
Nautical Twilight 6:31 AM PDT 8:11 PM PDT
Astronomical Twilight 5:59 AM PDT 8:43 PM PDT
Moon 1:58 PM PDT (3/10) 3:48 AM PDT (3/10)
Length of Visible Light 12h 36m
Length of Day
11h 41m
Waxing Gibbous, 71% of the Moon is Illuminated
Mar 10
Waxing Gibbous
Mar 16
Full
Mar 23
Last Quarter
Mar 30
New
Apr 7
First Quarter

Hourly Weather History & Observations

Time (PDT) Temp. Windchill Dew Point Humidity Pressure Visibility Wind Dir Wind Speed Gust Speed Precip Events Conditions
12:15 AM 48.2 °F - 46.4 °F 93% 30.04 in 8.0 mi Calm Calm - N/A   Overcast
12:35 AM 46.4 °F - 46.4 °F 100% 30.05 in 7.0 mi Calm Calm - 0.01 in   Overcast
12:55 AM 46.4 °F - 46.4 °F 100% 30.05 in 5.0 mi Calm Calm - 0.01 in   Overcast
1:10 AM 46.4 °F - 46.4 °F 100% 30.05 in 6.0 mi Calm Calm - 0.01 in   Overcast
1:35 AM 46.4 °F - 46.4 °F 100% 30.05 in 4.0 mi Calm Calm - 0.08 in   Overcast
1:55 AM 46.4 °F 45.2 °F 46.4 °F 100% 30.06 in 5.0 mi ESE 3.5 mph - 0.12 in   Overcast
2:15 AM 46.4 °F 42.9 °F 42.8 °F 87% 30.06 in 8.0 mi ENE 6.9 mph - 0.01 in   Mostly Cloudy
2:35 AM 46.4 °F 45.2 °F 41.0 °F 81% 30.07 in 10.0 mi East 3.5 mph - 0.01 in   Overcast
2:55 AM 44.6 °F 43.1 °F 41.0 °F 87% 30.08 in 10.0 mi WSW 3.5 mph - 0.01 in   Overcast
3:15 AM 44.6 °F - 42.8 °F 93% 30.08 in 10.0 mi Calm Calm - N/A   Overcast
3:30 AM 44.6 °F - 41.0 °F 87% 30.07 in 10.0 mi Calm Calm - N/A   Overcast
3:55 AM 44.6 °F 43.1 °F 42.8 °F 93% 30.04 in 10.0 mi SSE 3.5 mph - N/A   Overcast
4:15 AM 44.6 °F 43.1 °F 42.8 °F 93% 30.05 in 10.0 mi SW 3.5 mph - N/A   Mostly Cloudy
4:35 AM 44.6 °F 43.1 °F 42.8 °F 93% 30.05 in 10.0 mi SW 3.5 mph - N/A   Mostly Cloudy
4:55 AM 44.6 °F - 41.0 °F 87% 30.05 in 10.0 mi Calm Calm - N/A   Mostly Cloudy
5:15 AM 42.8 °F - 41.0 °F 93% 30.07 in 10.0 mi Calm Calm - N/A   Scattered Clouds
5:35 AM 42.8 °F - 41.0 °F 93% 30.07 in 10.0 mi Calm Calm - N/A   Scattered Clouds
5:55 AM 41.0 °F - 41.0 °F 100% 30.09 in 10.0 mi Calm Calm - N/A   Clear
6:15 AM 41.0 °F 38.0 °F 41.0 °F 100% 30.10 in 10.0 mi WNW 4.6 mph - N/A   Partly Cloudy
6:35 AM 41.0 °F - 41.0 °F 100% 30.10 in 10.0 mi Calm Calm - N/A   Partly Cloudy
6:55 AM 41.0 °F 38.0 °F 39.2 °F 93% 30.11 in 10.0 mi SSW 4.6 mph - N/A   Mostly Cloudy
7:15 AM 39.2 °F - 39.2 °F 100% 30.12 in 10.0 mi Calm Calm - N/A   Mostly Cloudy
7:35 AM 41.0 °F 38.0 °F 41.0 °F 100% 30.13 in 10.0 mi West 4.6 mph - N/A   Mostly Cloudy
7:55 AM 41.0 °F 39.0 °F 39.2 °F 93% 30.15 in 10.0 mi West 3.5 mph - N/A   Overcast
8:15 AM 41.0 °F - 41.0 °F 100% 30.15 in 10.0 mi Calm Calm - N/A   Mostly Cloudy
8:35 AM 42.8 °F - 41.0 °F 93% 30.17 in 10.0 mi Calm Calm - N/A   Mostly Cloudy
8:55 AM 44.6 °F 43.1 °F 41.0 °F 87% 30.19 in 10.0 mi South 3.5 mph - N/A   Scattered Clouds
9:15 AM 44.6 °F - 41.0 °F 87% 30.19 in 9.0 mi Calm Calm - N/A   Partly Cloudy
9:35 AM 46.4 °F 45.2 °F 41.0 °F 81% 30.20 in 10.0 mi SE 3.5 mph - N/A   Clear
9:55 AM 46.4 °F 43.5 °F 41.0 °F 81% 30.21 in 10.0 mi SE 5.8 mph - N/A   Partly Cloudy
10:15 AM 48.2 °F - 39.2 °F 71% 30.22 in 10.0 mi ESE 3.5 mph - N/A   Partly Cloudy
10:35 AM 48.2 °F - 37.4 °F 66% 30.23 in 10.0 mi North 3.5 mph - N/A   Mostly Cloudy
10:55 AM 48.2 °F - 39.2 °F 71% 30.23 in 10.0 mi Calm Calm - N/A   Overcast
11:15 AM 50.0 °F - 37.4 °F 62% 30.23 in 10.0 mi WSW 6.9 mph - N/A   Scattered Clouds
11:35 AM 48.2 °F - 37.4 °F 66% 30.24 in 10.0 mi WSW 6.9 mph - N/A   Clear
11:55 AM 50.0 °F - 33.8 °F 54% 30.24 in 10.0 mi West 5.8 mph - N/A   Partly Cloudy
12:15 PM 51.8 °F - 32.0 °F 47% 30.24 in 10.0 mi SW 3.5 mph - N/A   Clear
12:35 PM 53.6 °F - 30.2 °F 41% 30.24 in 10.0 mi NW 13.8 mph 20.7 mph N/A   Clear
12:55 PM 53.6 °F - 26.6 °F 35% 30.24 in 10.0 mi NNW 10.4 mph 26.5 mph N/A   Clear
1:15 PM 53.6 °F - 28.4 °F 38% 30.24 in 10.0 mi NNW 8.1 mph 20.7 mph N/A   Clear
1:35 PM 53.6 °F - 28.4 °F 38% 30.24 in 10.0 mi NNW 9.2 mph 19.6 mph N/A   Clear
1:55 PM 55.4 °F - 28.4 °F 36% 30.23 in 10.0 mi North 8.1 mph - N/A   Partly Cloudy
2:15 PM 55.4 °F - 28.4 °F 36% 30.23 in 10.0 mi NNW 5.8 mph - N/A   Clear
2:30 PM 55.4 °F - 26.6 °F 33% 30.23 in 10.0 mi NNW 11.5 mph 16.1 mph N/A   Scattered Clouds
2:55 PM 55.4 °F - 28.4 °F 36% 30.23 in 10.0 mi NNW 5.8 mph - N/A   Overcast
3:15 PM 55.4 °F - 32.0 °F 41% 30.24 in 10.0 mi NE 9.2 mph - N/A   Overcast
3:35 PM 57.2 °F - 30.2 °F 36% 30.24 in 10.0 mi NE 5.8 mph 17.3 mph N/A   Overcast
3:55 PM 55.4 °F - 28.4 °F 36% 30.24 in 10.0 mi North 6.9 mph - N/A   Mostly Cloudy
4:15 PM 55.4 °F - 28.4 °F 36% 30.25 in 10.0 mi NNW 11.5 mph 16.1 mph N/A   Partly Cloudy
4:35 PM 55.4 °F - 32.0 °F 41% 30.25 in 10.0 mi NNE 5.8 mph - N/A   Scattered Clouds
4:55 PM 55.4 °F - 30.2 °F 38% 30.25 in 10.0 mi NE 6.9 mph - N/A   Mostly Cloudy
5:15 PM 53.6 °F - 28.4 °F 38% 30.25 in 10.0 mi NNW 9.2 mph - N/A   Mostly Cloudy
5:35 PM 53.6 °F - 28.4 °F 38% 30.26 in 10.0 mi North 6.9 mph - N/A   Partly Cloudy
5:55 PM 51.8 °F - 26.6 °F 38% 30.26 in 10.0 mi North 4.6 mph - N/A   Clear
6:15 PM 51.8 °F - 26.6 °F 38% 30.27 in 10.0 mi North 6.9 mph - N/A   Clear
6:35 PM 48.2 °F - 28.4 °F 46% 30.28 in 10.0 mi NW 5.8 mph - N/A   Clear
6:55 PM 46.4 °F 44.3 °F 32.0 °F 57% 30.29 in 10.0 mi WNW 4.6 mph - N/A   Clear
7:15 PM 44.6 °F 42.2 °F 32.0 °F 61% 30.29 in 10.0 mi West 4.6 mph - N/A   Clear
7:35 PM 42.8 °F 40.1 °F 35.6 °F 76% 30.30 in 10.0 mi WNW 4.6 mph - N/A   Clear
7:55 PM 41.0 °F 39.0 °F 35.6 °F 81% 30.30 in 10.0 mi West 3.5 mph - N/A   Clear
8:15 PM 41.0 °F 39.0 °F 33.8 °F 76% 30.31 in 10.0 mi West 3.5 mph - N/A   Clear
8:35 PM 41.0 °F 39.0 °F 35.6 °F 81% 30.32 in 10.0 mi SSW 3.5 mph - N/A   Clear
8:55 PM 39.2 °F - 33.8 °F 81% 30.32 in 10.0 mi Calm Calm - N/A   Clear
9:15 PM 39.2 °F - 35.6 °F 87% 30.32 in 10.0 mi Calm Calm - N/A   Clear
9:35 PM 37.4 °F 32.8 °F 33.8 °F 87% 30.34 in 10.0 mi WNW 5.8 mph - N/A   Clear
9:55 PM 37.4 °F 34.9 °F 32.0 °F 81% 30.34 in 10.0 mi West 3.5 mph - N/A   Clear
10:15 PM 37.4 °F 32.8 °F 32.0 °F 81% 30.35 in 10.0 mi WNW 5.8 mph - N/A   Clear
10:35 PM 35.6 °F 32.8 °F 32.0 °F 87% 30.36 in 10.0 mi West 3.5 mph - N/A   Clear
10:55 PM 35.6 °F 32.8 °F 32.0 °F 87% 30.36 in 10.0 mi West 3.5 mph - N/A   Clear
11:15 PM 37.4 °F 33.8 °F 32.0 °F 81% 30.36 in 10.0 mi WNW 4.6 mph - N/A   Clear
11:35 PM 35.6 °F 30.7 °F 32.0 °F 87% 30.36 in 10.0 mi NNW 5.8 mph - N/A   Clear
11:55 PM 39.2 °F 34.2 °F 30.2 °F 70% 30.36 in 10.0 mi North 6.9 mph - N/A   Clear